Regional Weather Roundup
Issued by NWS

Home | Current Version | Previous Version | Graphics & Text | Print | Product List | Glossary On
Versions: 1 2 3 4 5 6 7 8 9 10 11 12 13 14 15 16 17 18 19 20 21 22 23 24 25 26 27 28 29 30 31 32 33 34 35 36 37 38 39 40 41 42 43 44 45 46 47 48 49 50
000
ASUS43 KLSX 071059
RWRMO

WEATHER SUMMARY FOR MISSOURI
NATIONAL WEATHER SERVICE SPRINGFIELD MO
600 AM CDT TUE JUL 07 2015

NOTE: "FAIR" INDICATES FEW OR NO CLOUDS BELOW 12,000 FEET WITH NO
       SIGNIFICANT WEATHER AND/OR OBSTRUCTIONS TO VISIBILITY.
       CURRENT SKY AND/OR WEATHER CONDITIONS ARE NOT AVAILABLE FOR
       CHILLICOTHE AND FARMINGTON.

MOZ001>031-035>038-043-044-053-054-071200-
...NORTHERN AND WESTERN MISSOURI...

CITY           SKY/WX    TMP DP  RH WIND       PRES   REMARKS
KANSAS CTY INT CLOUDY    61  61 100 N9        30.01S FOG
KANSAS C DTWN  CLOUDY    64  61  90 NE12      30.00R FOG
LEE`S SUMMIT   CLOUDY    61  58  90 NE14      30.02R FOG
ST JOSEPH      CLOUDY    64  59  83 MISG      30.04R HAZE
CHILLICOTHE      N/A     64  62  93 N5        30.02R
KIRKSVILLE     LGT RAIN  62  58  86 N8        30.00R FOG

$$
MOZ066>068-077>081-088>096-101>105-071200-
...SOUTHWEST MISSOURI...

CITY           SKY/WX    TMP DP  RH WIND       PRES   REMARKS
SPRINGFIELD    LGT RAIN  74  72  93 SW3       29.94S
JOPLIN         CLOUDY    72  70  93 SW3       29.94S FOG

$$
MOZ032>034-039>042-045>050-055>058-069>072-071200-
...CENTRAL MISSOURI...

CITY           SKY/WX    TMP DP  RH WIND       PRES   REMARKS
COLUMBIA       CLOUDY    69  67  93 N12       29.93R
ROLLA          LGT RAIN  70  69  97 SW7       29.93S
SEDALIA        CLOUDY    66  63  90 N12       29.98R FOG
OSAGE BEACH    CLOUDY    72  68  88 S5        29.94S

$$
MOZ051-052-059>065-071200-
...EAST CENTRAL MISSOURI...

CITY           SKY/WX    TMP DP  RH WIND       PRES   REMARKS
ST LOUIS INTL  LGT RAIN  75  70  84 SW8       29.91R
SPIRIT OF STL  LGT RAIN  73  72  96 SW7       29.90R
ST CHARLES     CLOUDY    74  73  97 SW5       29.89R

$$
MOZ072>076-082>087-097>100-106>115-071200-
...SOUTH CENTRAL AND SOUTHEAST MISSOURI...

CITY           SKY/WX    TMP DP  RH WIND       PRES   REMARKS
CAPE GIRARDEAU CLOUDY    75  73  93 S8        29.95R
FARMINGTON     CLOUDY    73  70  88 W8        29.99R
POPLAR BLUFF   CLOUDY    77  75  93 SW10      29.94R
WEST PLAINS    CLOUDY    75  71  87 SW7       29.97S

$$



USA.gov is the U.S. government's official web portal to all federal, state and local government web resources and services.